Погода в Ве

Новая Каледония     20°56′57″S   167°21′11″E
темп.,
°C
ветер,
м/с
пор.,
м/с
влажн.,
%
обл.,
%
осадки,
мм/ч
давл.,
гПа
погр.,
м
16 августа, вт
вт1623:00+22св61291100 5.4 1015663
02:00+22св61187100 0.3 1013717
05:00+22св61385100 0.6 10111012
08:00+23св71288100 1.6 1013769
11:00+25св81385100 2.7 10111077
14:00+23ссв81492100 1.0 10091051
17:00+24ссв71390100 2.6 1009851
20:00+24с61389100 5.2 1010633
17 августа, ср
ср1723:00+23ссз6138983 8.3 1010660
02:00+23сз5138964 0.9 1009645
05:00+22ссз399337 2.0 1009375
08:00+24с310895 1.0 1010749
11:00+27с6107498 1.7 10101003
14:00+27с8157685 1.5 10071288
17:00+25ссз71487100 3.1 10081073
20:00+24с6149060 4.1 1010837
18 августа, чт
чт1823:00+23с81587100 10.1 1009830
02:00+21сз4109395 2.8 1009709
05:00+19з71090100 3.1 1011718
08:00+19зюз6981100 0.3 1015812
11:00+18з4876100 0.3 1014743
14:00+18з4776100 0.0 1012606
17:00+17зсз3786100 0.2 1013548
20:00+17з1385100 0.0 1015197
19 августа, пт
пт1923:00+17св128685 0.1 1015148
02:00+17св118499 0.0 101467
05:00+17вюв118493 0.0 101586
08:00+19вюв237979 0.0 1017289
11:00+22вюв226433 0.0 10161172
14:00+22вюв326875 0.1 1014938
17:00+20вюв357519 0.1 1015463
20:00+18вюв358276 0.0 1018246
20 августа, сб
сб2023:00+18юв368564 0.0 1018266
02:00+18юв358648 0.0 1017226
05:00+19юв358594 0.0 1017249
08:00+21ююв4685100 0.0 1018519
11:00+22ююв5682100 0.0 1017672
14:00+22ююв5787100 0.1 1015676
17:00+21ююв698996 0.1 1016675
20:00+22ююв5991100 0.1 1017622